[[{"header":{"parameterUnit":"m.s-1","parameterCategory":1,"la1":30.2991,"la2":30.254,"lo1":-89.0895,"lo2":-89.0444,"dy":0.0017,"dx":0.0017,"nx":28,"ny":28,"refTime":"2024-05-27T03:00:00:Z","depth":0,"parameterNumber":2,"parameterNumberName":"U-component_of_WINDS"},"data":[0,0,0,0,0,0,0,0,0,0,0,0,0,0,0,0,0,0,0,0,0,0,0,0,0,0,0,0,0,0,0,0,0,0,0,0,0,0,0,0,0,0,0,0,0,0,0,0,0,0,0,0,0,0,0,0,0,0,1.7836,1.7836,0,1.7823,1.7822,1.7822,1.7759,1.7757,1.7756,1.7754,1.7741,1.7742,1.7743,0,0,0,0,0,0,0,0,0,0,0,0,0,1.7805,1.7806,1.7836,1.7836,1.7835,1.7823,1.7822,1.7822,1.7759,1.7757,1.7755,1.7753,1.774,1.7742,1.7743,0,0,0,0,0,0,0,0,0,0,0,0,0,1.7808,1.7806,1.7836,1.7802,1.7799,1.7823,1.7822,1.7822,1.7759,1.7757,1.7755,1.7753,1.774,1.7741,1.7743,1.7798,0,0,1.7748,1.7748,0,0,0,0,0,0,0,0,1.7808,1.7809,1.7807,1.7805,1.7801,1.779,1.7806,1.7814,1.776,1.7774,1.7754,1.7752,1.7759,1.7759,1.7761,1.7797,1.7797,1.7748,1.7749,1.775,1.775,0,0,0,0,0,0,0,1.7807,1.7809,1.7831,1.7807,1.7804,1.7787,1.7785,1.7808,1.7779,1.7773,1.7768,1.7768,1.7757,1.776,1.776,1.7796,1.7748,1.7749,1.775,1.7751,1.7874,1.7876,0,0,0,0,0,0,1.7812,1.7809,1.7831,1.783,1.7799,1.779,1.7787,1.7796,1.7779,1.7774,1.777,1.7765,1.7758,1.7759,1.776,1.7821,1.775,1.7751,1.7752,1.7872,1.7875,1.7877,0,0,0,0,0,0,1.7812,1.7815,1.7831,1.7818,1.7819,1.7793,1.7803,1.7797,1.78,1.7776,1.7771,1.7778,1.7757,1.7758,1.7788,1.782,1.7752,1.7753,1.7869,1.7873,1.7876,1.7945,0,0,0,0,0,0,1.7811,1.7815,1.7836,1.7819,1.782,1.7861,1.7805,1.7798,1.7803,1.7796,1.7783,1.7779,1.7755,1.7786,1.779,1.7821,1.7754,1.7866,1.7871,1.7875,1.794,1.7951,1.796,0,0,0,0,0,1.781,1.7856,1.7837,1.784,1.7846,1.7863,1.7863,1.7835,1.7806,1.7826,1.7811,1.7779,1.7816,1.779,1.7793,1.7825,1.7864,1.7869,1.7874,1.7936,1.7949,1.796,0,0,0,0,0,0,1.7878,1.7854,1.7832,1.7875,1.7871,1.7852,1.7877,1.785,1.7855,1.7849,1.7814,1.7811,1.7847,1.7839,1.7811,1.7876,1.7834,1.7841,1.788,1.7892,1.7902,1.7902,1.7756,0,0,0,0,0,1.7898,1.7913,1.7892,1.7931,1.793,1.7904,1.791,1.7889,1.7884,1.7882,1.7869,1.7866,1.7876,1.7884,1.7892,1.7939,1.7934,1.7962,1.7972,1.798,1.7986,1.8008,1.802,1.7894,1.7894,1.7894,0,0,1.7939,1.7928,1.794,1.7944,1.7939,1.7955,1.7903,1.7924,1.7935,1.7885,1.7913,1.7903,1.7897,1.7935,1.7951,1.793,1.8019,1.7987,1.7994,1.7995,1.8015,1.8026,1.8037,1.7898,1.7897,1.7897,0,0,1.8022,1.8016,1.8047,1.8042,1.8035,1.8017,1.8024,1.8009,1.8,1.8028,1.799,1.8003,1.8023,1.8019,1.8019,1.8099,1.807,1.8103,1.8155,1.8177,1.8186,1.8195,1.8222,1.8232,1.8109,1.8109,1.8109,0,1.8074,1.8097,1.8066,1.8088,1.809,1.8046,1.8076,1.8073,1.8069,1.8072,1.8048,1.807,1.8062,1.8098,1.8118,1.812,1.8127,1.8104,1.8188,1.8196,1.8203,1.8229,1.8239,1.8113,1.8113,1.8112,1.8112,0,1.8161,1.8178,1.8204,1.82,1.8205,1.8232,1.8204,1.8213,1.8191,1.8175,1.8202,1.8192,1.8196,1.8203,1.8182,1.8236,1.8223,1.8194,1.8151,1.822,1.8243,1.8252,1.8119,1.8117,1.8116,1.8115,0,0,1.8286,1.8264,1.8274,1.8271,1.8258,1.827,1.8294,1.8298,1.8306,1.8305,1.8323,1.834,1.8312,1.8313,1.8291,1.8311,1.8372,1.8279,1.8278,1.8295,1.8429,1.845,1.8462,1.8353,1.8355,1.8356,1.8429,0,1.8364,1.8403,1.8375,1.8419,1.8433,1.839,1.841,1.8404,1.839,1.84,1.8384,1.8396,1.836,1.836,1.8377,1.8361,1.8398,1.8356,1.8369,1.8369,1.837,1.8474,1.8496,1.8566,1.8438,1.8439,1.8441,0,1.846,1.8462,1.8507,1.849,1.8495,1.8514,1.8514,1.8524,1.8516,1.8505,1.8505,1.8477,1.8498,1.8457,1.8485,1.8457,1.846,1.8453,1.8455,1.8454,1.8409,1.8475,1.8587,1.8597,1.8455,1.8454,1.8453,0,1.8545,1.8559,1.8587,1.8586,1.8567,1.8581,1.8574,1.8564,1.8568,1.8568,1.857,1.8574,1.8575,1.8578,1.8552,1.8524,1.8583,1.854,1.8573,1.8573,1.8586,1.8585,1.8699,1.8591,1.8591,1.8591,1.859,0,1.8634,1.8663,1.8624,1.8641,1.8672,1.8639,1.867,1.8658,1.865,1.8663,1.8627,1.864,1.8605,1.8615,1.8595,1.862,1.8621,1.8612,1.8606,1.8614,1.8615,1.8615,1.8609,1.8593,1.8593,1.8592,1.8592,0,1.8734,1.8709,1.8736,1.8716,1.8712,1.8735,1.8717,1.8732,1.8715,1.8732,1.8735,1.8708,1.8718,1.8692,1.8698,1.8684,1.872,1.8707,1.8722,1.8718,1.8752,1.8749,1.8869,1.8882,1.8767,1.8768,1.8769,0,1.8792,1.8812,1.8794,1.88,1.8795,1.8806,1.8809,1.8777,1.8782,1.8774,1.8789,1.8796,1.8799,1.8816,1.8797,1.88,1.8786,1.8828,1.8787,1.8794,1.8785,1.8784,1.8785,1.8837,1.8838,1.8839,1.884,0,1.8896,1.8883,1.8888,1.889,1.8894,1.8894,1.8891,1.8899,1.8865,1.8872,1.8881,1.8883,1.8888,1.8894,1.8894,1.8886,1.8857,1.8853,1.8861,1.8869,1.8877,1.8872,1.8744,1.8851,1.885,1.8849,1.8848,1.8848,1.8975,1.8991,1.898,1.8987,1.8982,1.898,1.8992,1.8976,1.8983,1.8984,1.8965,1.8977,1.8968,1.8964,1.8959,1.8968,1.8949,1.896,1.8963,1.8966,1.8971,1.8876,1.8968,1.8968,1.8967,1.8967,1.8967,0,1.9076,1.9067,1.9074,1.9071,1.9076,1.9048,1.9043,1.905,1.9061,1.9055,1.9058,1.9067,1.9073,1.9054,1.9057,1.9068,1.9055,1.9069,1.9068,1.9066,1.8988,1.8981,1.908,1.908,1.908,1.908,1.908,1.908,1.913,1.9154,1.9139,1.916,1.915,1.9162,1.9161,1.9158,1.9153,1.9165,1.9169,1.9157,1.9145,1.9146,1.915,1.9144,1.9146,1.9165,1.9155,1.9083,1.9072,1.9061,1.9054,1.9167,1.9167,1.9232,1.9232,1.9233]},{"header":{"parameterUnit":"m.s-1","parameterCategory":1,"la1":30.2991,"la2":30.254,"lo1":-89.0895,"lo2":-89.0444,"dy":0.0017,"dx":0.0017,"nx":28,"ny":28,"refTime":"2024-05-27T03:00:00:Z","depth":0,"parameterNumber":3,"parameterNumberName":"V-component_of_WINDS"},"data":[0,0,0,0,0,0,0,0,0,0,0,0,0,0,0,0,0,0,0,0,0,0,0,0,0,0,0,0,0,0,0,0,0,0,0,0,0,0,0,0,0,0,0,0,0,0,0,0,0,0,0,0,0,0,0,0,0,0,6.3653,6.3652,0,6.3591,6.359,6.3589,6.3482,6.348,6.3478,6.3476,6.3414,6.3414,6.3414,0,0,0,0,0,0,0,0,0,0,0,0,0,6.368,6.368,6.3653,6.3652,6.3651,6.3591,6.359,6.3589,6.3482,6.348,6.3477,6.3475,6.3413,6.3414,6.3414,0,0,0,0,0,0,0,0,0,0,0,0,0,6.3648,6.368,6.3653,6.359,6.3584,6.3591,6.359,6.3589,6.3483,6.3479,6.3476,6.3474,6.3413,6.3414,6.3414,6.3477,0,0,6.3415,6.3415,0,0,0,0,0,0,0,0,6.365,6.3647,6.36,6.3595,6.3588,6.3541,6.3577,6.3552,6.3483,6.3521,6.3476,6.3472,6.3458,6.3455,6.345,6.3474,6.3472,6.3415,6.3415,6.3416,6.3416,0,0,0,0,0,0,0,6.3652,6.3649,6.3628,6.36,6.3592,6.3566,6.3558,6.3571,6.3508,6.3518,6.351,6.3504,6.3454,6.345,6.3448,6.3471,6.3415,6.3415,6.3416,6.3416,6.3544,6.3547,0,0,0,0,0,0,6.3664,6.3652,6.363,6.3626,6.3612,6.3568,6.3559,6.3559,6.3507,6.3496,6.3506,6.3499,6.3451,6.3447,6.3445,6.3515,6.3416,6.3416,6.3416,6.3541,6.3545,6.3548,0,0,0,0,0,0,6.3665,6.3663,6.3633,6.3637,6.3631,6.3571,6.3571,6.3559,6.3555,6.3499,6.3487,6.3513,6.3448,6.3445,6.347,6.3512,6.3416,6.3416,6.3537,6.3542,6.3546,6.3657,0,0,0,0,0,0,6.3666,6.3664,6.3687,6.3638,6.3631,6.3658,6.3574,6.356,6.3555,6.3545,6.3502,6.3492,6.3446,6.347,6.347,6.351,6.3417,6.3533,6.3539,6.3545,6.3649,6.3665,6.3678,0,0,0,0,0,6.3667,6.372,6.3688,6.3686,6.3659,6.3661,6.3657,6.3602,6.3559,6.3582,6.3546,6.3493,6.3507,6.3474,6.3473,6.3514,6.353,6.3537,6.3544,6.3643,6.3662,6.3678,0,0,0,0,0,0,6.3776,6.3713,6.3677,6.3716,6.3695,6.3643,6.367,6.3624,6.3615,6.3605,6.3538,6.3529,6.3564,6.3541,6.3505,6.3572,6.3511,6.3518,6.3586,6.3603,6.3618,6.3622,6.3417,0,0,0,0,0,6.3804,6.3811,6.3756,6.3796,6.3787,6.3731,6.373,6.3689,6.3664,6.3655,6.3621,6.36,6.3599,6.36,6.3596,6.3646,6.3635,6.3674,6.3689,6.3701,6.3708,6.3732,6.3749,6.3572,6.3572,6.3571,0,0,6.3863,6.3829,6.3838,6.3817,6.3795,6.3804,6.3724,6.3736,6.3742,6.3657,6.3678,6.3653,6.3625,6.3663,6.3678,6.3645,6.3754,6.371,6.372,6.372,6.3742,6.3758,6.3773,6.3577,6.3576,6.3575,0,0,6.3974,6.395,6.398,6.3961,6.3929,6.3892,6.39,6.3855,6.3835,6.3855,6.3791,6.3798,6.3799,6.3781,6.3772,6.3878,6.383,6.3879,6.3955,6.398,6.3994,6.4006,6.4044,6.4058,6.3887,6.3887,6.3887,0,6.4051,6.4061,6.4002,6.4018,6.4011,6.3934,6.3965,6.3949,6.3919,6.3916,6.388,6.3879,6.3855,6.3888,6.3914,6.3909,6.3916,6.3883,6.3997,6.4008,6.4018,6.4054,6.4068,6.3893,6.3892,6.3892,6.3891,0,6.4158,6.4166,6.4194,6.4167,6.4163,6.4187,6.4131,6.4135,6.4095,6.4062,6.4084,6.4052,6.4041,6.4046,6.4007,6.4073,6.4054,6.4009,6.3945,6.4043,6.4074,6.4088,6.3902,6.39,6.3898,6.3896,0,0,6.4334,6.4274,6.4285,6.4272,6.4233,6.4238,6.4259,6.4248,6.4252,6.4234,6.425,6.4253,6.421,6.42,6.4159,6.4182,6.4268,6.4133,6.4131,6.4159,6.4339,6.4373,6.439,6.4236,6.4238,6.424,6.4341,0,6.4437,6.4468,6.4416,6.4459,6.4466,6.4394,6.4412,6.4391,6.436,6.4362,6.4329,6.4332,6.4276,6.4269,6.4288,6.4253,6.4303,6.4245,6.425,6.4251,6.4258,6.4406,6.4442,6.4539,6.4353,6.4355,6.4357,0,6.456,6.4548,6.4593,6.4551,6.4552,6.4569,6.4555,6.4558,6.4532,6.4509,6.4499,6.445,6.4468,6.4407,6.4431,6.4394,6.4392,6.4376,6.4378,6.4376,6.4309,6.4408,6.4569,6.4583,6.4376,6.4374,6.4373,0,6.4684,6.468,6.4705,6.4696,6.4649,6.4662,6.4643,6.4614,6.4611,6.4599,6.4596,6.4587,6.4582,6.4576,6.4527,6.4487,6.4557,6.4492,6.4538,6.4539,6.4555,6.4555,6.4718,6.4556,6.4556,6.4555,6.4555,0,6.4804,6.4834,6.4761,6.4777,6.4808,6.4748,6.4782,6.4755,6.4731,6.474,6.4678,6.4689,6.4623,6.4627,6.4589,6.4615,6.4613,6.4595,6.4584,6.46,6.4602,6.4598,6.459,6.4559,6.4558,6.4557,6.4557,0,6.4948,6.49,6.4923,6.4876,6.4865,6.4891,6.485,6.4864,6.483,6.4843,6.4843,6.479,6.4791,6.4742,6.4734,6.4708,6.475,6.4728,6.4759,6.4752,6.48,6.4796,6.4966,6.4985,6.4812,6.4813,6.4815,0,6.5027,6.5048,6.5004,6.5006,6.4989,6.4994,6.499,6.4932,6.4931,6.4904,6.4921,6.4917,6.4911,6.4917,6.4878,6.4871,6.4848,6.4908,6.4847,6.4862,6.4849,6.4848,6.485,6.4921,6.4923,6.4925,6.4926,0,6.5172,6.5148,6.5144,6.5134,6.5131,6.512,6.5105,6.5111,6.5048,6.505,6.505,6.5046,6.5037,6.5035,6.5021,6.5002,6.4954,6.4946,6.4956,6.4972,6.499,6.4981,6.4794,6.4942,6.4941,6.4939,6.4939,6.4938,6.5285,6.5301,6.5272,6.5271,6.5254,6.5242,6.5252,6.5219,6.5219,6.5207,6.5173,6.518,6.5154,6.5131,6.5116,6.512,6.5091,6.5106,6.5109,6.5114,6.5123,6.499,6.5118,6.5117,6.5117,6.5116,6.5116,0,6.5427,6.5405,6.5405,6.5386,6.5386,6.5341,6.5322,6.5325,6.5331,6.5311,6.5307,6.5308,6.5305,6.5267,6.5259,6.5271,6.5249,6.5271,6.5269,6.5265,6.515,6.5142,6.5289,6.5289,6.5289,6.5289,6.5289,6.5289,6.5501,6.5525,6.5498,6.5513,6.5491,6.5497,6.549,6.5478,6.5462,6.5466,6.5464,6.5438,6.5411,6.5402,6.5398,6.5386,6.5386,6.5416,6.5398,6.529,6.5274,6.5258,6.5249,6.5417,6.5417,6.5512,6.5513,6.5514]}]]